Location: Caltech
(34.1382°N, 118.1253°W)
Time: 05:53:40
(UTC-07:00)

Iridium 72 - Visible Passes

Search period start: 03 September 2015 00:00
Search period end: 13 September 2015 00:00
Orbit: 776 x 779 km, 86.4° (Epoch: 02 September)

Date Brightness Start Highest point End Pass type
(mag) Time Alt. Az. Time Alt. Az. Time Alt. Az.
03 Sep 8.0 22:34:45 10° N 22:35:30 14° N 22:35:30 14° N visible
04 Sep 8.0 22:01:40 10° NNE 22:02:05 12° NNE 22:02:05 12° NNE visible
05 Sep 8.3 23:08:29 10° NNW 23:09:08 13° NNW 23:09:08 13° NNW visible
06 Sep 8.0 22:34:46 10° N 22:35:43 16° N 22:35:43 16° N visible
07 Sep 7.8 22:01:26 10° NNE 22:02:18 15° NNE 22:02:18 15° NNE visible
08 Sep 7.9 21:28:33 10° NNE 21:28:55 12° NNE 21:28:55 12° NNE visible
08 Sep 8.4 23:08:55 10° NNW 23:09:24 12° NNW 23:09:24 12° NNW visible
09 Sep 8.0 22:34:55 10° N 22:36:00 16° NNW 22:36:00 16° NNW visible
10 Sep 7.7 22:01:20 10° N 22:02:38 18° N 22:02:38 18° N visible
11 Sep 7.6 21:28:10 10° NNE 21:29:17 16° NNE 21:29:17 16° NNE visible
11 Sep 8.5 23:09:33 10° NW 23:09:45 11° NW 23:09:45 11° NW visible
12 Sep 7.8 20:55:35 10° NE 20:55:55 11° NE 20:55:55 11° NE visible
12 Sep 8.0 22:35:12 10° NNW 22:36:23 16° NNW 22:36:23 16° NNW visible
